Flagstaff, AZ

3:32 PM MST on August 31, 2016 (GMT -0700)
Flagstaff Pulliam

Weather History for KFLG - December, 2013

Change the Weather History Date:

Saturday, December 7, 2013

  Actual Average Record
Temperature  
Mean Temperature 16 °F 30 °F  
Max Temperature 26 °F 43 °F 66 °F (1958)
Min Temperature 5 °F 17 °F -19 °F (1978)
Degree Days  
Heating Degree Days 49 35  
Month to date heating degree days 270 238  
Since 1 July heating degree days 2025 1970  
Cooling Degree Days 0 0  
Month to date cooling degree days 0 0  
Year to date cooling degree days 148 117  
Moisture  
Dew Point 15 °F    
Average Humidity 79    
Maximum Humidity 96    
Minimum Humidity 61    
Precipitation  
Precipitation 0.25 in 0.06 in 1.75 in (2009)
Month to date precipitation 0.56 0.39  
Year to date precipitation 24.00 20.38  
Snow  
Snow 4.90 in 0.60 in 20.10 in (2009)
Month to date snowfall 7.9 3.5  
Since 1 July snowfall 19.9 15.7  
Snow Depth 8.00 in    
Sea Level Pressure  
Sea Level Pressure 29.91 in    
Wind  
Wind Speed 17 mph (SW)    
Max Wind Speed 33 mph    
Max Gust Speed 43 mph    
Visibility 6 miles    
Events Fog , Snow    
T = Trace of Precipitation, MM = Missing Value Source: NWS Daily Summary

Daily Weather History Graph

Daily Weather History Graph

Search for Another Location

Airport or City:

Trip Planner

Search our weather history database for the weather conditions in past years. The results will help you decide how hot, cold, wet, or windy it might be!

Date:

Astronomy

Dec. 07, 2013 Rise Set
Actual Time 7:22 AM MST 5:14 PM MST
Civil Twilight 6:54 AM MST 5:42 PM MST
Nautical Twilight 6:22 AM MST 6:14 PM MST
Astronomical Twilight 5:51 AM MST 6:44 PM MST
Moon 11:17 AM MST (12/7) 10:51 PM MST (12/7)
Length of Visible Light 10h 48m
Length of Day
9h 52m
Waxing Crescent, 30% of the Moon is Illuminated
Dec 7
Waxing Crescent
Dec 9
First Quarter
Dec 17
Full
Dec 25
Last Quarter
Jan 1
New

Hourly Weather History & Observations

Time (MST) Temp. Windchill Dew Point Humidity Pressure Visibility Wind Dir Wind Speed Gust Speed Precip Events Conditions
12:57 AM 6.1 °F - -0.0 °F 76% 30.08 in 10.0 mi Calm Calm - N/A   Clear
1:57 AM 17.1 °F 8.7 °F 7.0 °F 65% 30.01 in 10.0 mi West 5.8 mph - N/A   Mostly Cloudy
2:57 AM 17.1 °F 8.7 °F 7.0 °F 65% 30.00 in 10.0 mi West 5.8 mph - N/A   Clear
3:57 AM 16.0 °F 6.3 °F 6.1 °F 65% 29.99 in 10.0 mi West 6.9 mph - N/A   Clear
4:57 AM 12.0 °F - 5.0 °F 73% 29.99 in 10.0 mi Calm Calm - N/A   Clear
5:57 AM 10.9 °F 0.2 °F 5.0 °F 77% 29.99 in 10.0 mi SW 6.9 mph - N/A   Clear
6:57 AM 14.0 °F 2.0 °F 7.0 °F 74% 29.99 in 10.0 mi SW 9.2 mph - N/A   Clear
7:57 AM 17.1 °F 4.3 °F 9.0 °F 71% 30.01 in 10.0 mi WSW 11.5 mph - N/A   Clear
8:54 AM 19.4 °F 6.0 °F 10.4 °F 68% 29.90 in 10.0 mi SW 13.8 mph - N/A   Mostly Cloudy
8:57 AM 19.0 °F 5.6 °F 10.9 °F 71% 30.03 in 10.0 mi SW 13.8 mph - N/A   Mostly Cloudy
9:57 AM 19.9 °F 3.9 °F 12.0 °F 71% 30.04 in 10.0 mi SSW 20.7 mph - N/A   Overcast
10:57 AM 23.0 °F 9.2 °F 14.0 °F 68% 30.01 in 10.0 mi SW 17.3 mph 26.5 mph N/A   Mostly Cloudy
11:57 AM 21.9 °F 7.3 °F 15.1 °F 75% 29.99 in 10.0 mi SW 18.4 mph 26.5 mph N/A   Overcast
12:19 PM 21.9 °F 5.8 °F 16.0 °F 78% 29.84 in 10.0 mi SW 23.0 mph 32.2 mph N/A   Overcast
12:57 PM 23.0 °F 6.0 °F 16.0 °F 74% 29.96 in 10.0 mi SW 27.6 mph 38.0 mph N/A   Overcast
1:57 PM 23.0 °F 7.2 °F 18.0 °F 81% 29.88 in 4.0 mi SW 23.0 mph 33.4 mph 0.00 in Snow Light Snow
2:57 PM 24.1 °F 9.8 °F 19.0 °F 81% 29.85 in 6.0 mi SSW 19.6 mph 29.9 mph 0.00 in Snow Light Snow
3:43 PM 23.0 °F 6.9 °F 19.0 °F 85% 29.77 in 1.8 mi SW 24.2 mph 32.2 mph 0.00 in Snow Light Snow
3:57 PM 23.0 °F 8.3 °F 19.0 °F 85% 29.84 in 0.8 mi SSW 19.6 mph 29.9 mph 0.00 in Snow Light Snow
4:57 PM 23.0 °F 6.9 °F 19.9 °F 88% 29.86 in 0.5 mi SSW 24.2 mph 28.8 mph 0.01 in Fog , Snow Snow
5:16 PM 23.0 °F 7.2 °F 19.9 °F 88% 29.77 in 0.2 mi SSW 23.0 mph 31.1 mph 0.00 in Fog , Snow Snow
5:35 PM 23.0 °F 5.7 °F 19.9 °F 88% 29.76 in 0.5 mi SSW 28.8 mph 34.5 mph 0.00 in Fog , Snow Snow
5:57 PM 23.0 °F 6.0 °F 19.9 °F 88% 29.86 in 0.5 mi SW 27.6 mph 36.8 mph 0.01 in Fog , Snow Snow
6:57 PM 23.0 °F 7.2 °F 21.0 °F 92% 29.85 in 0.5 mi SSW 23.0 mph 33.4 mph 0.01 in Fog , Snow Snow
7:57 PM 24.1 °F 7.4 °F 21.9 °F 91% 29.81 in 0.5 mi SW 27.6 mph 34.5 mph 0.02 in Fog , Snow Snow
8:57 PM 25.0 °F 10.6 °F 23.0 °F 92% 29.81 in 0.5 mi SW 20.7 mph 36.8 mph 0.05 in Fog , Snow Snow
9:57 PM 25.0 °F 8.9 °F 23.0 °F 92% 29.80 in 0.5 mi SW 26.5 mph 38.0 mph 0.02 in Fog , Snow Snow
10:57 PM 26.1 °F 11.3 °F 24.1 °F 92% 29.81 in 0.5 mi SW 23.0 mph 27.6 mph 0.09 in Fog , Snow Snow
11:57 PM 26.1 °F 10.4 °F 24.1 °F 92% 29.81 in 0.8 mi SW 26.5 mph 33.4 mph 0.04 in Snow Light Snow